Vertical_Velocity
1 1 -1 0 0 -1 -3 -2 -3 -4 -4 -3 -4 -5 -5 -4 -3 -3 -0 -2 -0 -0
8 3 -1 3 -6 -0 1 -3 6 2 -3 -3 -2 1 -1 -4 -1 -1 -1 -1 -1 -4
0 5 9 -7 5 -1 -5 -2 0 -3 -3 -4 -4 -3 -1 -2 -5 -2 -5 -4 -3 -5
1 1 5 2 -2 3 -1 -4 -5 -6 -3 -2 -2 -3 -0 -5 -5 -1 -1 -6 -7 -9
3 5 2 -6 1 -1 -4 -6 -5 -3 -3 -4 -0 -2 -1 -1 -0 1 0 -1 5 -3
7 -5 -3 -5 -1 -2 -3 -4 -3 -1 -2 -2 -1 -0 -1 1 2 0 -0 -0 2 -4
0 -4 3 -1 -2 -3 -1 -2 -2 -1 -1 -0 0 1 2 2 2 1 5 7 0 -4
-3 4 -1 1 0 -1 -0 -1 -1 -1 -0 0 2 -0 8 3 0 1 0 -1 -3 -4
6 -5 2 1 -2 0 -0 -1 -1 -1 1 0 -1 7 2 3 2 -1 -0 -5 -7 -3
-3 -0 0 -2 -0 -1 0 -3 -1 0 3 -1 -1 2 0 3 1 1 -1 -1 -1 -2
4 1 -0 1 -0 -1 -1 -1 1 -1 -1 -1 -3 -2 -2 2 0 -1 -4 -1 -1 1
-0 0 -1 -0 -1 -2 -2 -0 -1 -0 0 -3 -8 -2 3 4 1 1 -2 -1 -0 0
-0 -0 -0 -2 -2 -2 3 0 -0 -7 -0 0 -7 -1 1 5 5 0 1 -5 -6 -4
-1 2 -2 -5 1 -0 2 -6 -3 -2 -0 -2 3 -3 3 3 1 3 -2 -3 1 8
Height
1470 1470 1470 1469 1469 1470 1470 1470 1469 1467 1466 1464 1462 1461 1459 1457 1456 1452 1450 1448 1446 1446
1462 1462 1462 1462 1463 1464 1464 1464 1464 1462 1459 1458 1456 1454 1451 1449 1447 1444 1442 1440 1438 1438
1457 1457 1457 1458 1459 1459 1459 1458 1457 1455 1453 1451 1448 1446 1444 1441 1439 1437 1434 1432 1431 1430
1453 1453 1453 1454 1455 1455 1453 1452 1450 1448 1446 1443 1440 1438 1435 1433 1431 1428 1425 1423 1422 1419
1450 1450 1451 1451 1451 1450 1447 1446 1444 1440 1437 1435 1432 1429 1427 1424 1421 1418 1415 1413 1412 1409
1446 1447 1448 1447 1446 1444 1442 1439 1436 1433 1429 1426 1423 1420 1417 1414 1411 1408 1405 1403 1402 1400
1443 1443 1443 1442 1440 1438 1436 1432 1428 1424 1420 1417 1413 1410 1407 1404 1400 1397 1394 1392 1390 1387
1438 1439 1438 1437 1435 1433 1429 1424 1420 1415 1412 1408 1405 1401 1398 1394 1390 1386 1381 1378 1375 1373
1435 1435 1434 1432 1429 1425 1421 1417 1413 1408 1403 1399 1395 1392 1387 1382 1378 1373 1368 1364 1362 1360
1431 1431 1429 1426 1423 1418 1414 1409 1405 1400 1395 1390 1386 1382 1376 1371 1366 1360 1357 1353 1350 1348
1428 1426 1424 1420 1416 1411 1406 1401 1396 1391 1387 1381 1376 1370 1364 1359 1354 1349 1345 1342 1339 1336
1424 1421 1418 1414 1409 1404 1399 1394 1389 1384 1378 1372 1365 1359 1355 1350 1344 1339 1334 1331 1328 1326
1418 1415 1411 1407 1402 1398 1393 1386 1381 1375 1370 1364 1357 1352 1348 1343 1337 1331 1325 1321 1317 1315
1413 1410 1406 1401 1397 1392 1386 1379 1374 1368 1362 1356 1351 1345 1341 1336 1330 1324 1317 1312 1308 1305